Location: Catania
(37.5000°N, 15.1000°E)
Time: 09:25:26
(UTC+01:00)

ISS - Visible Passes

Search period start: 22 January 2019 00:00
Search period end: 01 February 2019 00:00
Orbit: 404 x 410 km, 51.6° (Epoch: 23 January)

Date Brightness Start Highest point End Pass type
(mag) Time Alt. Az. Time Alt. Az. Time Alt. Az.
22 Jan -2.6 17:52:02 10° SSW 17:54:53 28° SE 17:57:16 13° ENE visible
22 Jan -1.2 19:28:28 10° W 19:30:01 21° WNW 19:30:01 21° WNW visible
23 Jan -3.2 18:36:45 10° WSW 18:39:57 50° NW 18:41:04 33° NNE visible
24 Jan -3.8 17:45:18 10° SW 17:48:34 81° SE 17:51:53 10° NE visible
24 Jan -1.1 19:23:23 10° WNW 19:24:46 15° NW 19:24:46 15° NW visible
25 Jan -1.9 18:31:12 10° W 18:33:55 23° NNW 18:35:40 15° NNE visible
26 Jan -2.6 17:39:18 10° WSW 17:42:24 37° NW 17:45:31 10° NE visible
27 Jan -1.2 18:26:15 10° NW 18:27:59 13° NNW 18:29:43 10° N visible
